Regional Weather Roundup
Issued by NWS Midland/Odessa, TX

Home | Current Version | Previous Version | Text Only | Print | Product List | Glossary On
Versions: 1 2 3 4 5 6 7 8 9 10 11 12 13 14 15 16 17 18 19 20 21 22 23 24 25 26 27 28 29 30 31 32 33 34 35 36 37 38 39 40 41 42 43 44 45 46 47 48 49 50
286
ASUS44 KMAF 132110
RWRMAF
MIDLAND AREA WEATHER ROUNDUP
NATIONAL WEATHER SERVICE MIDLAND TX
300 PM CST SAT FEB 13 2016

...IN SOUTHWEST TEXAS AND SOUTHEAST NEW MEXICO...

CITY           SKY/WX    TMP DP  RH WIND       PRES   REMARKS
ALPINE         SUNNY     75  13   9 S18       30.23F
ANDREWS        FAIR      73  30  20 SW13G20   30.11F
ARTESIA        SUNNY     68  32  26 S12G18    30.08F
BIG SPRING     MOSUNNY   75  40  27 S21       30.13F
CARLSBAD       SUNNY     71  30  21 SE12      30.07F
DRYDEN           N/A     75  45  34 S14G22    30.13F
FORT STOCKTON  SUNNY     79  26  14 VRB3      30.09F
GUAD PASS      SUNNY     73  14  10 W17G23    30.20F
HOBBS          SUNNY     70  27  19 S10G18    30.12F
MARFA          SUNNY     72  15  11 S10G23    30.21F
MIDLAND AIRPK  SUNNY     74  39  27 S15       30.12F
MIDLAND INTL   SUNNY     74  37  26 S16G24    30.11F
ODESSA         SUNNY     74  36  25 S15       30.12F
PECOS          SUNNY     73  31  22 E7        30.09F
PRESIDIO       FAIR      78  19  11 SE6       30.12F
SEMINOLE       SUNNY     72  35  26 S12       30.12F
SNYDER           N/A     73  43  34 S18       30.12F
WINK           SUNNY     74  28  18 S7        30.09F
$$
...OTHER STATIONS IN TEXAS...

CITY           SKY/WX    TMP DP  RH WIND       PRES   REMARKS
ABILENE        SUNNY     73  44  35 S18G25    30.14F
AMARILLO       CLOUDY    69  33  26 S28G35    30.04F
AUSTIN         PTSUNNY   74  54  49 S15       30.22F
BROWNSVILLE    PTSUNNY   75  56  51 SE12G21   30.23F
CORPUS CHRISTI MOSUNNY   75  52  44 SE20      30.23F
DALLAS FTW     MOSUNNY   65  37  35 S10       30.22F
DEL RIO        SUNNY     78  46  32 SE16      30.14F
EL PASO        MOSUNNY   74  12   9 W6        30.12F
HOUSTON INT    MOSUNNY   66  50  56 SE12G21   30.29F
LUBBOCK        PTSUNNY   68  35  29 S20G29    30.09F
SAN ANGELO     SUNNY     79  43  27 S15G23    30.12F
SAN ANTONIO    MOSUNNY   73  52  47 S9G18     30.22F
WACO           MOSUNNY   71  49  45 S14       30.22F
WICHITA FALLS  NOT AVBL
$$
...OTHER LOCATIONS IN NEW MEXICO...

CITY           SKY/WX    TMP DP  RH WIND       PRES   REMARKS
ALAMAGORDO     SUNNY     72  19  14 S15G21    30.14F
ALBUQUERQUE    MOSUNNY   65  14  14 SW7       30.15F
CANNON AFB     SUNNY     72  19  13 SW18G25   30.06F
CLOVIS         SUNNY     72  28  20 SW25      30.08F
HOLLOMAN AFB   SUNNY     71  10   9 SW7G16    30.13F
ROSWELL        SUNNY     69  27  20 S14       30.08F
RUIDOSO        SUNNY     64   7  10 SW16      30.21F
SANTA FE       SUNNY     64  14  14 SW18G24   30.15F
TRUTH OR CONSE SUNNY     70   5   8 S13G18    30.13F
TUCUMCARI      SUNNY     76  19  11 SW21G26   30.00F
$$




USA.gov is the U.S. government's official web portal to all federal, state and local government web resources and services.